Location: *
(2.5500°S, 65.9667°W)
Time: 07:21:43
(UTC+00:00)

Explorer 7 - Pass Details

Date: 18 April 2024
Orbit: 467 x 625 km, 50.3° (Epoch: 26 May)

Event Time Altitude Azimuth Distance (km) Brightness Sun altitude
Rises 13:13:35 0° 226° (SW) 2,740 10.0 40.9°
Reaches altitude 10° 13:15:50 10° 232° (SW) 1,870 9.2 41.5°
Maximum altitude 13:19:59 49° 307° (NW) 763 7.8 42.5°
Drops below altitude 10° 13:24:18 10° 22° (NNE) 1,947 10.2 43.5°
Sets 13:26:42 0° 27° (NNE) 2,866 10.9 44.1°
